Location: Rioux
(40.7500°S, 175.7500°E)
Time: 10:50:42
(UTC+00:00)

Cosmos 1943 - Pass Details

Date: 12 June 2024
Orbit: 834 x 847 km, 71.0° (Epoch: 20 July)

Event Time Altitude Azimuth Distance (km) Brightness Sun altitude
Exits shadow 18:18:12 - 299° (WNW) 2,585 5.3 -14.7°
Reaches altitude 10° 18:18:34 10° 297° (WNW) 2,466 5.2 -14.6°
Maximum altitude 18:23:31 30° 236° (WSW) 1,481 3.9 -13.8°
Drops below altitude 10° 18:28:31 10° 175° (S) 2,497 5.5 -12.9°
Sets 18:31:19 0° 164° (SSE) 3,441 6.3 -12.4°
